Location: Indian Springs
(36.5700°N, 115.6700°W)
Time: 00:31:01
(UTC-07:00)

Daily predictions for brighter satellites

Satellite Brightness Start Highest point End
(mag) Time Altitude Azimuth Time Altitude Azimuth Time Altitude Azimuth
Cosmos 2278 Rocket 4.3 00:11:25 10° NNW 00:13:15 21° NW 00:13:15 21° NW
SL-16 R/B 4.3 00:45:21 22° N 00:45:21 22° N 00:47:23 10° NNE
Cosmos 2369 Rocket 4.2 01:20:52 10° N 01:23:26 25° N 01:23:26 25° N
CENTAUR R/B 4.5 01:35:25 10° NW 01:38:54 27° WNW 01:38:54 27° WNW
ADEOS Rocket 4.2 02:05:36 10° NNE 02:08:42 34° NNE 02:08:42 34° NNE
Cosmos 1125 Rocket 4.4 02:50:24 10° N 02:54:26 46° NNE 02:54:26 46° NNE
Cosmos 1943 Rocket 4.0 02:52:23 10° NNW 02:54:07 21° NW 02:54:07 21° NW
SL-16 R/B 2.5 03:00:43 79° NNE 03:00:43 79° NNE 03:06:39 10° NNW
Resurs 1-4 Rocket 2.7 02:56:27 10° NNE 03:00:31 54° NNE 03:00:31 54° NNE
Cosmos 1821 Rocket 4.4 03:04:53 54° NW 03:04:53 54° NW 03:09:59 10° N
Cosmos 2123 Rocket 4.0 02:59:07 10° N 03:05:23 75° E 03:05:32 74° E
Cosmos 1656 Rocket 4.0 02:59:55 10° NNW 03:05:19 65° NE 03:05:19 65° NE
BREEZE-M DEB (TANK) 3.9 03:05:59 74° WSW 03:06:16 75° SW 03:24:57 10° SE
CZ-2D R/B 2.5 03:07:10 10° N 03:11:34 60° N 03:11:34 60° N
Centaur D AC-29 3.8 03:15:46 28° SSE 03:15:46 28° SSE 03:27:29 10° ESE
Cosmos 1934 Rocket 4.1 03:19:10 57° NW 03:19:10 57° NW 03:24:28 10° N
Cosmos 292 Rocket 4.2 03:24:57 58° ENE 03:24:57 58° ENE 03:29:12 10° NNE
USA 229 DEB 4.1 03:17:20 10° NNW 03:24:30 68° NE 03:31:48 10° SE
USA 229 4.1 03:17:27 10° NNW 03:24:36 68° NE 03:31:54 10° SE
Cosmos 1605 Rocket 3.9 03:32:10 69° WSW 03:32:40 72° W 03:39:04 10° N
ARIANE 5 R/B 2.8 03:28:15 10° N 03:32:51 56° NW 03:32:51 56° NW
UNKNOWN OBJECT B 3.6 03:32:22 10° NNE 03:35:28 50° NNE 03:35:28 50° NNE
Cosmos 1726 3.5 03:38:31 37° NNE 03:38:31 37° NNE 03:40:53 10° N
MOZ.5/SAFIR/RUBIN 5/SL-8 3.7 03:39:35 78° N 03:39:35 78° N 03:43:59 10° NNW
SL-27 R/B 4.1 03:41:53 31° NNE 03:41:53 31° NNE 03:43:49 10° NNE
Cosmos 1328 Rocket 4.5 03:42:22 38° ESE 03:43:11 43° E 03:47:17 10° NNE
Hubble Space Telescope 3.1 03:48:18 14° SE 03:48:18 14° SE 03:49:20 10° ESE
ADEOS II 3.2 03:47:21 10° NNE 03:52:16 39° E 03:55:48 17° SSE
Cosmos 2221 4.2 03:54:47 22° NW 03:54:47 22° NW 03:56:57 10° NNW
Cosmos 1153 Rocket 4.5 03:53:37 49° SSW 03:55:20 70° W 04:01:40 10° N
Cosmos 1666 Rocket 3.4 03:51:20 10° N 03:55:47 87° W 03:56:02 80° SSW
Cosmos 1805 Rocket 4.4 03:53:24 10° NNW 03:56:30 38° NW 03:56:30 38° NW
Kakehashi 4.0 04:00:13 39° SSW 04:01:29 45° SSE 04:08:20 10° E
Meteor 2-2 Rocket 4.4 03:58:48 31° S 04:01:48 78° E 04:07:50 10° NNE
ADEOS 4.3 04:01:59 10° N 04:06:38 34° WNW 04:06:52 34° WNW
Cosmos 1802 Rocket 4.2 04:02:41 19° S 04:07:13 70° E 04:13:27 10° NNE
BREEZE M DEB (TANK) 3.5 04:05:41 17° NW 04:08:36 77° NE 04:21:37 10° SE
Cosmos 773 Rocket 4.0 04:06:32 37° S 04:08:38 78° ESE 04:13:56 10° NNE
Cosmos 2100 Rocket 4.0 04:05:50 28° S 04:09:27 87° W 04:15:52 10° N
OAO 1 4.4 04:09:56 46° WSW 04:11:35 76° S 04:17:06 10° E
COSMOS 2406 4.0 04:11:14 31° W 04:12:11 33° WNW 04:17:17 10° N
Okean O Rocket 3.0 04:10:40 10° NNE 04:14:46 36° E 04:18:46 10° SSE
Cosmos 1151 Rocket 3.4 04:15:14 23° SSE 04:17:45 61° E 04:21:59 10° NNE
Cosmos 1833 Rocket 3.7 04:14:04 12° S 04:18:51 42° ESE 04:24:08 10° NE
Meteor 2-10 4.2 04:19:23 32° SSW 04:22:03 66° W 04:27:42 10° N
Cosmos 1300 3.4 04:22:37 37° WNW 04:22:37 37° WNW 04:25:53 10° N
Sich 1 3.8 04:27:50 10° NNW 04:31:36 31° W 04:31:36 31° W
Cosmos 2173 Rocket 4.1 04:31:44 22° SSW 04:35:49 58° W 04:42:05 10° N
Cosmos 1455 2.7 04:35:24 11° S 04:38:52 58° E 04:42:34 10° NNE
Cosmos 2278 4.2 04:33:44 10° NNW 04:39:21 62° ENE 04:44:55 10° SSE
Cosmos 1315 Rocket 4.0 04:37:07 10° NW 04:39:52 24° WNW 04:39:52 24° WNW
Resurs 1-4 Rocket 4.1 04:39:04 10° NW 04:40:49 12° WNW 04:41:35 11° WNW
SL-16 R/B 4.3 04:45:48 12° WNW 04:45:48 12° WNW 04:47:16 10° WNW
Cosmos 2228 Rocket 3.7 04:46:16 26° SW 04:48:03 36° W 04:52:12 10° N
Cosmos 1470 Rocket 3.6 04:43:57 10° NNW 04:48:09 53° W 04:52:21 10° S
PSLV R/B 4.2 04:47:33 15° WNW 04:49:55 42° N 04:53:03 10° E
Cosmos 1697 Rocket 4.1 04:46:01 10° N 04:51:22 41° ENE 04:56:41 10° SE
Tiangong 2 1.0 04:51:27 31° WSW 04:52:50 83° SSE 04:56:04 10° ENE
CZ-4B DEB 4.2 04:48:13 10° NNE 04:53:46 86° ESE 04:59:15 10° SSW
Cosmos 1515 Rocket 4.2 04:52:14 22° SW 04:54:28 37° W 04:58:34 10° N
PSLV R/B 4.4 04:55:32 10° N 04:59:28 43° WNW 05:02:27 16° SW
Cosmos 1633 Rocket 4.5 04:57:09 10° NW 05:00:09 18° W 05:00:52 18° W
Cosmos 923 Rocket 4.1 04:58:17 14° SW 05:02:37 56° WNW 05:07:47 10° N
Cosmos 2082 Rocket 2.2 04:58:18 11° SSW 05:03:43 76° WNW 05:09:21 10° NNE
IRS-1C Rocket 4.1 05:00:55 10° NNE 05:06:12 83° WNW 05:11:27 10° SSW
CZ-4B R/B 3.7 05:05:24 10° N 05:09:36 41° WNW 05:13:49 10° SW
Cosmos 1869 Rocket 4.3 05:05:31 10° N 05:09:57 59° E 05:14:19 10° SSE
Meteor 1-31 Rocket 3.2 05:06:19 10° NNE 05:10:15 67° E 05:14:10 10° S
Lacrosse 5 2.6 05:07:15 10° NW 05:12:16 59° NE 05:17:15 10° SE
Meteor 2-3 Rocket 3.8 05:06:47 10° NNW 05:12:18 57° W 05:17:50 10° S
Meteor PRIRODA 3.6 05:09:37 10° N 05:13:18 87° WNW 05:16:56 10° SSW
CZ-2C R/B 3.7 05:14:22 10° SSE 05:18:46 84° ENE 05:23:14 10° NNW
NOSS 3-1 (A) 4.2 05:12:58 10° NW 05:20:43 63° WSW 05:29:05 10° SSE
Landsat 4 3.8 05:17:19 10° S 05:20:57 53° W 05:24:39 10° NNW
Shenzhou-11 Module 2.8 05:18:40 12° W 05:21:20 43° NNW 05:24:18 10° NE
Cosmos 1680 Rocket 3.8 05:16:35 10° SW 05:21:41 50° WNW 05:26:52 10° N
CZ-4B R/B 3.3 05:16:45 10° N 05:22:06 55° WNW 05:27:18 10° SSW
Cosmos 1892 3.5 05:18:43 10° NNW 05:22:07 30° W 05:25:30 10° SSW
Hubble Space Telescope 2.1 05:23:40 11° WSW 05:27:02 26° S 05:30:31 10° ESE
Cosmos 2112 Rocket 4.3 05:23:07 10° SW 05:28:15 51° WNW 05:33:29 10° N
Cosmos 2084 3.2 05:26:41 10° SW 05:30:47 81° WNW 05:34:43 10° NNE
ADEOS II 3.3 05:27:39 10° NNW 05:31:42 23° WNW 05:35:45 10° WSW
Cosmos 2233 Rocket 4.0 05:27:14 10° SSW 05:33:18 66° W 05:39:25 10° N
Cosmos 2369 4.0 05:28:15 10° NW 05:33:34 43° WSW 05:38:50 10° S
OAO 2 Rocket 3.8 05:30:11 10° WSW 05:34:58 49° SSE 05:39:48 10° E
Abrixas 2.3 05:32:39 10° WNW 05:35:12 50° SW 05:37:45 10° SE
Cosmos 1825 2.2 05:33:25 10° N 05:37:14 89° ENE 05:41:02 10° S
COSMOS 2487 4.1 05:37:09 10° WSW 05:39:44 19° WNW 05:42:21 10° NNW
